Find Local Weather

World > North America > United States > Texas

Plano, Texas Regional Weather

Lat: 33.05N, Lon: 96.75W
Wx Zone: TXZ104
Warning FLW WEATHER ALERT - (More Info. Click Here) Warning
Feedback
Expires:201805260900;;545335
ASUS44 KFWD 260815
RWRTX 
NORTH TEXAS HOURLY WEATHER ROUNDUP
NATIONAL WEATHER SERVICE FORT WORTH TX
300 AM CDT SAT MAY 26 2018

NOTE: "FAIR" INDICATES FEW OR NO CLOUDS BELOW 12,000 FEET WITH NO
SIGNIFICANT WEATHER AND/OR OBSTRUCTIONS TO VISIBILITY.


TXZ091>094-102>105-117-120-121-131>134-260900-
NORTH CENTRAL TEXAS
  
CITY           SKY/WX    TMP DP  RH WIND       PRES   REMARKS
SHRMAN/DENISON FAIR      70  66  86 E9        29.83F                  
GAINESVILLE    FAIR      70  63  78 E6        29.85S                  
BOWIE          FAIR      70  64  79 E5        29.84R                  
BRIDGEPORT     FAIR      72  64  78 W5        29.84R                  
DECATUR        FAIR      73  65  75 NE5       29.84R                  
DENTON         FAIR      75  65  70 E8        29.81R                  
MCKINNEY       FAIR      70  68  93 SE5       29.84F                  
BONHAM         FAIR      71  65  82 SW10      29.83F                  
GREENVILLE     LGT RAIN  73  68  83 N7        29.89R                  
ROCKWALL       FAIR      71  67  89 SE7       29.84F                  
TERRELL        LGT RAIN  73  66  78 NE6       29.87R                  
WAXAHACHIE     FAIR      70  65  84 S7        29.80F                  
CLEBURNE       FAIR      73  70  88 SE10      29.80S                  
GRANBURY       FAIR      75  65  69 SE3       29.80S                  
$$


SKY/WX - Weather  TMP - Temperature  DP - Dewpoint  RH - Relative Humidity
WIND - Wind Direction/Speed PRES - Barometric Pressure